User: anonymous   Login
Location: Nairn
(57.5833°N, 3.8667°W)
Time: 10:59:46
(UTC+00:00)
Language:

Cosmos 836 Rocket - Orbit

View from above orbital plane
View from above orbital plane
View from above satellite
View from above satellite

Ground track
Ground track

The orbit data is extracted from the following two-line orbital elements,

1  8924U 76061B   20304.94014782 +.00000078 +00000-0 +35093-4 0  9996
2  8924 074.0600 001.5393 0015159 314.6178 218.1970 14.37164925320458
Epoch (UTC): 30 October 2020 22:33:48
Eccentricity: 0.0015159
inclination: 74.0600°
perigee height: 757 km
apogee height: 779 km
right ascension of ascending node: 1.5393°
argument of perigee: 314.6178°
revolutions per day: 14.37164925
mean anomaly at epoch: 218.1970°
orbit number at epoch: 32045

The dashed part of the orbit path shows where the satellite is in the earth's shadow,  

DLR